"Pseudo-MPEC" for P1161E2

Created 2020 Sep 18 11:07:35 UT using Find_Orb

Click here for an explanation of pseudo-MPECs

 
 Astrometry: 
     P1161E2  C2020 09 14G2;X/TocT_aVns5A7EWa?;6%AmlB%aa8J#l@@FY(W'UY[jTsi1Z.F51
     P1161E2  C2020 09 14Lq4GZjCBQ[l.(fONy1_'frb0LAstrometry[y8paAuf_00\R;xI?F51
     P1161E2  C2020 09 14x(chEO`b_gC^%mFw4u=M+M07hN68(Uj0MTxs]95CX'_L'\:#hbMxF51
     P1161E2  C2020 09 14TpDb.y,`qSD0hAjGOM*eAae/#maW=g!%OT1H[L?4J)#ks$m+QgL8F51
     P1161E2  C2020 09 15.45824 01 49 48.27 -14 47 36.6    ~9FBq 21.8 GVNEOCPV06
     P1161E2  C2020 09 15.46378 01 49 47.62 -14 47 35.9    ~9FBq 22.0 GVNEOCPV06
     P1161E2  C2020 09 15.46933 01 49 47.00 -14 47 35.4    ~9FBq 22.3 GVNEOCPV06
     P1161E2  C2020 09 15.47488 01 49 46.35 -14 47 35.5    ~9FBq 21.7 GVNEOCPV06
     P1161E2  C2020 09 16-6TwMq?Ovn)a35S70(k4Predacted;m?'5EtB[jvYqmxFCF**=HRF51
     P1161E2  C2020 09 16!UK18pyBd#ydQAyAq2md09-1C7Nl/ZG?+Y12S@+VsI.nH)e[vOEjF51
     P1161E2  C2020 09 166V3'*Yk?'0J:uLNFclickW^?Fg)*Rd[/Jq@^S$qDCR.nl)NsWu*oF51
     P1161E2  C2020 09 16ne\nFh2JAQu;iN@:LcmZ1_=:2N5qD]\`s*`@f7K;S:DMUJ6+;HNwF51
     P1161E2  C2020 09 17+EuB[5peu2';RAGK[kxjiF!Eb#;jTF5OBJd859$p/0hPX:1#hereF52
     P1161E2  C2020 09 17lVs[tRA.,AC\GFV\:5RIEAy#5d''@=wOw;'sJ3for:GIXoJi+dX^F52
     P1161E2  C2020 09 173#Y2'nvbuq8HkjcLcg:#ic68gYCQ7[d::Pub'78xT*FytcL]Q@a@F52
     P1161E2  C2020 09 17]Q2KdU!7Ao+qEnx\,P66vj1:pnk6/es:wexplanationD$,!YCBOF52
     P1161E2  C2020 09 17OmtwFV)vG?Mk*gaS2wQJW(o[4Jo2lD;9r8_(A6O:=tE^[Rp2n!]KF51
     P1161E2  C2020 09 17),aqVV)TD;L\U.WE8rb2qnIJ=K=C.I*%Y:/[H-QNj`\!+tsG-DG!F51

Station data:
(F51) Pan-STARRS 1, Haleakala  (N20.707235 W156.255910)  US/Hawaii.
   Observers N. Primak, A. Schultz, S. Watters, J. Thiel, T. Goggia. Measurer
   PS1 Science Consortium. 1.8-m Ritchey-Chrétien + CCD.
(F52) Pan-STARRS 2, Haleakala  (N20.707384 W156.255910)  US/Hawaii. 1.8-m
   Ritchey-Chrétien + CCD.
(V06) Catalina Sky Survey-Kuiper  (N32.416847 W110.732550)  US/Arizona.
   Observers T. A. Pruyne, B. M. Africano, E. J. Christensen, G. A. Farneth,
   D. C. Fuls, A. R. Gibbs, A. D. Grauer, H. Gröller, J. A. Johnson, R. A.
   Kowalski, S. M. Larson, G. J. Leonard, D. Rankin, R. L. Seaman, F. C.
   Shelly. 1.55-m reflector + CCD.

Orbital elements:  P1161E2
   Perihelion 2020 Jun 11.137916 +/- 1.04 TT =  3:18:35 (JD 2459011.637916)
Epoch 2020 Sep 17.0 TT = JDT 2459109.5   Earth MOID: 0.0910   AutoNEOCP
M  34.75096553 +/- 0.34             (J2000 ecliptic)
n   0.35510142 +/- 0.00376          Peri.  220.54889 +/- 0.30
a   1.97500305 +/- 0.0139           Node    57.45234 +/- 0.7
e   0.4638984 +/- 0.00379           Incl.   10.22980 +/- 0.21
P   2.78                   H 21.9   G  0.15   U  9.0  
q 1.05880220 +/- 0.000958    Q 2.89120390 +/- 0.0277
From 18 observations 2020 Sept. 14-17; mean residual 0".20
Residuals in arcseconds: 
200914 F51  .06-  .00     200915 V06  .16+  .04+    200917 F52  .14+  .31+    
200914 F51  .17-  .07+    200915 V06  .08-  .62-    200917 F52  .21-  .04-    
200914 F51  .17+  .18+    200916 F51  .11-  .03+    200917 F52  .07-  .10+    
200914 F51  .02-  .07+    200916 F51  .11-  .13+    200917 F52  .41+  .41+    
200915 V06  .20+  .05-    200916 F51  .17-  .02+    200917 F51  .03+  .14-    
200915 V06  .04-  .10+    200916 F51  .07+  .05-    200917 F51  .19-  .53-    

Ephemerides (geocentric):
Date (UTC) HH   RA              Dec         delta   r     elong  mag " sig PA
---- -- -- --  -------------   -----------  ------ ------ -----  --- ---- ---
2020 09 18 11  01 44 15.007   -14 41 42.51  .53656 1.4861 147.7 22.5 .381 176
2020 09 18 12  01 44 10.279   -14 41 36.73  .53669 1.4863 147.7 22.5 .391 176
2020 09 18 13  01 44 05.549   -14 41 30.93  .53682 1.4866 147.7 22.5 .401 176
2020 09 18 14  01 44 00.816   -14 41 25.09  .53696 1.4868 147.8 22.5 .411 177
2020 09 18 15  01 43 56.081   -14 41 19.22  .53709 1.4871 147.8 22.5 .422 177
2020 09 18 16  01 43 51.344   -14 41 13.33  .53722 1.4874 147.9 22.5 .432 177
2020 09 18 17  01 43 46.604   -14 41 07.41  .53736 1.4876 147.9 22.5 .443 177
2020 09 18 18  01 43 41.863   -14 41 01.45  .53749 1.4879 148.0 22.5 .454 178
2020 09 18 19  01 43 37.119   -14 40 55.47  .53763 1.4882 148.0 22.5 .466 178
2020 09 18 20  01 43 32.373   -14 40 49.46  .53776 1.4884 148.1 22.5 .477 178
2020 09 18 21  01 43 27.625   -14 40 43.42  .53790 1.4887 148.1 22.5 .489 178
2020 09 18 22  01 43 22.875   -14 40 37.35  .53803 1.4890 148.2 22.5 .500 179
2020 09 18 23  01 43 18.123   -14 40 31.24  .53817 1.4892 148.2 22.5 .512 179
2020 09 19 00  01 43 13.368   -14 40 25.11  .53831 1.4895 148.2 22.5 .525 179
2020 09 19 01  01 43 08.612   -14 40 18.95  .53844 1.4898 148.3 22.5 .537 179
2020 09 19 02  01 43 03.853   -14 40 12.76  .53858 1.4900 148.3 22.5 .550   0
2020 09 19 03  01 42 59.093   -14 40 06.54  .53872 1.4903 148.4 22.5 .562   0
2020 09 19 04  01 42 54.330   -14 40 00.29  .53886 1.4906 148.4 22.5 .575   0
2020 09 19 05  01 42 49.566   -14 39 54.01  .53899 1.4908 148.5 22.5 .589   0
2020 09 19 06  01 42 44.799   -14 39 47.70  .53913 1.4911 148.5 22.5 .602   1
2020 09 19 07  01 42 40.031   -14 39 41.36  .53927 1.4914 148.6 22.5 .616   1
2020 09 19 08  01 42 35.260   -14 39 34.99  .53941 1.4916 148.6 22.5 .629   1
2020 09 19 09  01 42 30.488   -14 39 28.59  .53955 1.4919 148.6 22.5 .643   1
2020 09 19 10  01 42 25.713   -14 39 22.16  .53969 1.4922 148.7 22.5 .658   2
2020 09 19 11  01 42 20.937   -14 39 15.70  .53983 1.4924 148.7 22.5 .672   2
2020 09 19 12  01 42 16.159   -14 39 09.21  .53997 1.4927 148.8 22.5 .687   2
2020 09 19 13  01 42 11.378   -14 39 02.69  .54011 1.4930 148.8 22.5 .701   2
2020 09 19 14  01 42 06.596   -14 38 56.14  .54025 1.4932 148.9 22.5 .717   3
2020 09 19 15  01 42 01.812   -14 38 49.56  .54039 1.4935 148.9 22.5 .732   3
2020 09 19 16  01 41 57.027   -14 38 42.95  .54053 1.4938 149.0 22.5 .747   3
2020 09 19 17  01 41 52.239   -14 38 36.31  .54067 1.4940 149.0 22.5 .763   3
2020 09 19 18  01 41 47.449   -14 38 29.63  .54081 1.4943 149.0 22.5 .779   4
2020 09 19 19  01 41 42.658   -14 38 22.93  .54095 1.4946 149.1 22.5 .795   4
2020 09 19 20  01 41 37.865   -14 38 16.20  .54110 1.4948 149.1 22.5 .811   4
2020 09 19 21  01 41 33.070   -14 38 09.43  .54124 1.4951 149.2 22.5 .828   4
2020 09 19 22  01 41 28.274   -14 38 02.64  .54138 1.4954 149.2 22.5 .844   4
2020 09 19 23  01 41 23.475   -14 37 55.81  .54152 1.4956 149.3 22.5 .861   5
2020 09 20 00  01 41 18.675   -14 37 48.96  .54167 1.4959 149.3 22.5 .878   5
2020 09 20 01  01 41 13.873   -14 37 42.07  .54181 1.4962 149.4 22.5 .896   5
2020 09 20 02  01 41 09.070   -14 37 35.16  .54195 1.4964 149.4 22.5 .913   5
2020 09 20 03  01 41 04.265   -14 37 28.21  .54210 1.4967 149.4 22.5 .931   6
2020 09 20 04  01 40 59.458   -14 37 21.23  .54224 1.4970 149.5 22.5 .949   6
2020 09 20 05  01 40 54.649   -14 37 14.22  .54239 1.4972 149.5 22.5 .967   6
2020 09 20 06  01 40 49.839   -14 37 07.18  .54253 1.4975 149.6 22.5 .986   6
2020 09 20 07  01 40 45.027   -14 37 00.11  .54268 1.4978 149.6 22.5 1.00   6
2020 09 20 08  01 40 40.213   -14 36 53.01  .54282 1.4980 149.7 22.5 1.02   7
2020 09 20 09  01 40 35.398   -14 36 45.87  .54297 1.4983 149.7 22.5 1.04   7
2020 09 20 10  01 40 30.582   -14 36 38.71  .54312 1.4986 149.8 22.5 1.06   7